Location: Bush Observatory
(40.2653°N, 94.3194°W)
Time: 16:11:20
(UTC-05:00)

Daily predictions for brighter satellites

Satellite Brightness Start Highest point End
(mag) Time Altitude Azimuth Time Altitude Azimuth Time Altitude Azimuth
CENTAUR R/B 3.3 20:54:15 10° NW 21:02:10 78° WSW 21:10:29 10° SSE
Meteor 2-10 Rocket 3.8 20:56:58 10° N 21:02:49 76° E 21:08:27 10° SSE
Okean 1-7 4.4 21:02:47 10° NNW 21:06:51 43° W 21:10:56 10° SSW
Cosmos 2082 Rocket 4.3 21:05:24 10° NNE 21:08:00 13° NE 21:10:34 10° ENE
Cosmos 2263 Rocket 4.4 21:03:39 10° WSW 21:08:38 31° WNW 21:13:38 10° N
Meteor 1-10 Rocket 4.4 21:04:37 10° N 21:10:25 65° ENE 21:16:04 10° SSE
CZ-2D R/B 4.2 21:09:36 10° S 21:13:18 49° W 21:17:01 10° NNW
ISS -2.6 21:10:42 10° SSW 21:13:39 32° SE 21:16:36 10° ENE
Centaur D-1A AC-32 4.3 21:11:59 10° SSW 21:14:10 12° S 21:15:49 10° SSE
Cosmos 1238 Rocket 4.2 21:13:30 10° NNE 21:15:55 18° ENE 21:18:32 10° SE
Cosmos 1174 4.3 21:13:01 10° N 21:15:56 29° NE 21:18:30 11° ESE
USA 186 2.7 21:13:14 10° S 21:16:16 49° W 21:19:27 10° NNW
Cosmos 2056 Rocket 3.6 21:12:30 10° SSW 21:17:40 82° WNW 21:22:49 10° NNE
Cosmos 1862 4.3 21:15:52 10° SSE 21:19:25 30° E 21:23:00 10° NNE
Cosmos 2074 Rocket 4.1 21:13:30 10° S 21:19:47 88° W 21:26:06 10° N
SPOT 5 4.0 21:16:07 10° SE 21:20:48 34° ENE 21:25:35 10° N
NOSS 2-2 (D) 4.4 21:18:57 10° SW 21:22:59 55° NW 21:27:42 10° NNE
COS B Rocket 4.0 21:22:29 10° NNE 21:26:08 32° E 21:29:13 11° SSE
Cosmos 1674 Rocket 3.5 21:23:01 10° N 21:27:30 78° E 21:31:55 10° S
Okean 2 Rocket 4.3 21:25:23 11° SE 21:28:43 23° E 21:32:12 10° NE
Cosmos 1610 Rocket 4.5 21:23:18 10° S 21:29:26 76° E 21:35:40 10° N
SL-27 R/B 2.8 21:28:18 10° NNW 21:31:56 66° WSW 21:35:28 10° S
Cosmos 1606 3.0 21:30:23 10° N 21:34:15 53° E 21:37:46 12° SSE
Nadezhda 3 Rocket 4.2 21:30:35 10° N 21:36:52 58° E 21:43:07 10° SSE
Meteor 1-27 Rocket 3.7 21:32:37 10° N 21:38:09 65° E 21:43:36 10° SSE
Sich 1 Rocket 3.6 21:34:04 10° S 21:38:38 82° E 21:43:15 10° N
Cosmos 1892 4.5 21:36:15 10° SW 21:39:47 35° WNW 21:43:22 10° N
Cosmos 1782 Rocket 4.1 21:38:02 10° SSE 21:42:11 40° E 21:46:22 10° NNE
BREEZE-M DEB (TANK) 4.2 21:28:31 10° WNW 21:44:36 63° NNE 21:48:19 14° E
Cosmos 1782 3.3 21:41:40 10° NNW 21:45:39 62° W 21:49:38 10° S
CZ-4 DEB 4.5 21:44:48 10° SSW 21:47:40 31° W 21:50:33 10° NNW
BREEZE-M DEB (TANK) 4.0 21:46:16 10° WNW 21:47:50 17° NNW 21:49:28 10° NNE
GPS 2-05 Rocket1 3.7 21:45:36 10° WSW 21:49:00 34° S 21:50:40 22° ESE
COSMOS 2487 2.9 21:46:46 10° N 21:50:17 47° ENE 21:52:14 23° SE
MetOp-B 4.4 21:46:21 16° SE 21:50:28 51° ENE 21:55:39 10° N
Envisat 3.0 21:46:05 10° SSE 21:51:10 88° ENE 21:56:17 10° NNW
APEX 4.1 21:51:35 18° SSE 21:53:55 33° ESE 21:58:12 10° NE
Cosmos 1939 Rocket 3.2 21:53:44 10° S 21:57:31 61° W 22:01:25 10° NNW
Cosmos 1975 Rocket 3.3 21:53:40 10° N 21:57:53 51° E 22:00:24 22° SSE
Atlas Centaur 2 3.0 21:58:28 10° SW 22:00:27 14° S 22:00:48 14° S
Cosmos 2341 Rocket 4.0 21:54:47 10° S 22:01:05 75° E 22:07:20 10° N
Cosmos 1420 Rocket 4.1 21:57:06 10° S 22:02:13 55° ESE 22:07:19 10° NNE
Cosmos 2084 3.6 22:02:46 10° SW 22:06:36 64° NW 22:10:25 10° NNE
Cosmos 1908 Rocket 4.1 22:02:38 10° SSW 22:06:59 61° W 22:11:23 10° N
ARGOS 3.6 22:05:13 23° SE 22:08:14 45° ENE 22:13:18 10° N
ERS-1 Rocket 4.1 22:03:54 10° S 22:08:39 42° W 22:13:26 10° NNW
Cosmos 1378 Rocket 3.7 22:05:32 10° NNW 22:09:50 73° W 22:13:08 17° S
Cosmos 407 Rocket 4.4 22:05:25 10° NNW 22:10:26 46° WSW 22:15:21 11° S
ATLAS 5 CENTAUR R/B 4.0 22:05:17 10° NW 22:10:27 29° WSW 22:15:51 10° S
Elektron 3 4.3 22:08:47 10° NNW 22:11:40 56° NE 22:13:13 31° ESE
CZ-4 R/B 4.4 22:09:11 10° NNE 22:13:26 35° E 22:14:48 29° SE
deb Chang Zheng 4 4.4 22:10:00 10° N 22:14:18 52° WNW 22:18:36 10° SSW
UNK 4.4 22:08:17 10° NNE 22:14:29 69° ESE 22:20:21 10° S
SL-8 Rocket 4.1 22:10:10 17° SSE 22:14:57 57° E 22:21:03 10° NNE
H-2A R/B 3.3 22:13:15 21° ESE 22:15:28 28° ENE 22:19:55 10° N
Timation 2 Rocket 3.9 22:10:02 10° NNW 22:16:01 66° ENE 22:19:21 27° SE
Cosmos 1140 Rocket 3.4 22:11:12 10° NNW 22:16:21 75° ENE 22:19:08 28° SSE
YAOGAN 6 2.4 22:18:38 37° SSE 22:19:56 87° ENE 22:23:29 10° N
Cosmos 1452 Rocket 4.3 22:15:31 10° SW 22:20:39 52° WNW 22:25:49 10° N
Cosmos 1408 3.5 22:18:34 10° SSW 22:22:07 48° W 22:25:41 10° N
USA 245 3.0 22:21:42 46° SE 22:22:31 65° ENE 22:26:28 10° N
Cosmos 1242 Rocket 2.5 22:19:53 10° N 22:23:35 80° E 22:24:43 42° SSE
CZ-4 SHROUD 3.4 22:23:22 41° SSW 22:24:15 66° WSW 22:27:21 10° NNW
USA 234 3.8 22:20:55 10° ENE 22:26:42 33° SE 22:30:49 17° S
Cosmos 1825 3.3 22:23:17 10° SSW 22:26:55 42° W 22:30:35 10° N
CZ-4B R/B 3.3 22:23:24 10° NNE 22:28:21 69° ESE 22:31:08 25° S
PSLV R/B 3.8 22:28:00 37° SSW 22:28:45 48° W 22:31:38 10° NNW
SPOT 1/Viking Rocket 3.5 22:28:03 30° SSE 22:30:43 82° ENE 22:35:58 10° NNW
Cosmos 1833 Rocket 3.3 22:26:12 10° N 22:31:31 41° ENE 22:33:42 29° ESE
Cosmos 2278 Rocket 2.8 22:26:59 10° SW 22:32:34 58° WNW 22:38:12 10° NNE
Cosmos 2151 Rocket 3.8 22:33:23 41° SE 22:34:34 54° E 22:39:00 10° NNE
Cosmos 1184 Rocket 4.4 22:32:43 12° SW 22:35:29 35° WNW 22:38:36 10° N
H-2A R/B 3.7 22:32:34 11° SSW 22:36:05 29° W 22:39:48 10° NW
Landsat 7 4.2 22:36:06 37° ESE 22:37:24 48° ENE 22:42:00 10° N
Meteor 1-14 Rocket 4.1 22:41:16 23° S 22:44:59 89° E 22:50:37 10° N
Cosmos 864 Rocket 4.4 22:42:35 32° SSE 22:45:32 67° E 22:51:39 10° NNE
IGS 5A 4.3 22:47:10 34° ENE 22:47:23 34° ENE 22:51:11 10° N
CZ-3C R/B 4.1 22:38:18 10° WSW 22:49:05 18° SSW 22:50:58 17° S
ISS -1.3 22:47:10 10° W 22:50:05 30° NNW 22:53:01 10° NE
Cosmos 1812 3.6 22:48:12 10° N 22:51:28 36° ENE 22:51:28 36° ENE
Cosmos 2082 Rocket 2.1 22:47:20 10° NNW 22:53:04 78° ENE 22:54:52 45° SE
Terra 2.2 22:52:21 43° ESE 22:53:08 48° ENE 22:57:43 10° N
Cosmos 1850 Rocket 4.2 22:48:28 10° NNW 22:53:46 68° WSW 22:55:43 38° S
Intercosmos 25 4.2 22:52:28 23° SW 22:54:08 38° W 22:57:08 10° N
Cosmos 1300 Rocket 4.4 22:55:01 34° ENE 22:55:01 34° ENE 22:58:36 10° NNE
Cosmos 2366 rocket 3.9 22:51:57 29° S 22:55:23 85° E 23:01:46 10° N
SL-08 RB Rocket 3.8 22:55:26 47° S 22:56:42 75° WSW 23:01:22 10° NNW
Okean 1 Rocket 4.1 22:58:10 31° ENE 22:58:10 31° ENE 23:01:33 10° NNE
Spot 4 4.2 23:03:33 45° E 23:04:06 47° ENE 23:08:45 10° N
Okean 1-7 Rocket 4.5 23:03:13 10° N 23:07:07 36° ENE 23:07:07 36° ENE
Cosmos 2297 4.2 23:02:06 10° SW 23:07:43 60° WNW 23:13:25 10° NNE
Meteor 1-11 Rocket 4.5 23:12:12 36° E 23:12:16 36° E 23:17:29 10° NNE
Lacrosse 5 3.7 23:17:36 18° ENE 23:17:36 18° ENE 23:19:04 10° ENE
USA 229 DEB 3.7 23:07:19 10° NW 23:14:28 90° NE 23:16:52 46° SSE
USA 229 3.7 23:07:25 10° NW 23:14:34 89° NE 23:16:58 46° SSE
DMSP B5D2-2 3.9 23:09:22 10° NNE 23:14:36 73° ESE 23:15:24 62° SSE
CZ-4C R/B 3.6 23:19:47 60° W 23:19:47 60° W 23:23:43 10° NNW
Gbstr 26 Del rocket 4.1 23:17:12 10° NW 23:21:49 38° NNE 23:22:46 33° NE
Cosmos 1331 Rocket 3.8 23:22:09 72° SSE 23:22:36 79° ESE 23:27:46 10° NNE
ASTEX 1 3.4 23:19:57 10° NNE 23:24:51 66° E 23:24:51 66° E
Cosmos 1110 Rocket 4.0 23:28:13 56° SW 23:29:19 79° WNW 23:34:33 10° NNE
Timation 1 Rocket 4.3 23:27:36 37° SSW 23:30:08 81° WNW 23:36:11 10° NNE
CARTOSAT-1 4.0 23:35:50 55° W 23:35:50 55° W 23:39:56 10° NNW
Cosmos 1727 Rocket 4.5 23:32:49 10° NNW 23:38:46 52° W 23:40:45 38° SW
Cosmos 2369 Rocket 3.3 23:42:13 29° ENE 23:42:13 29° ENE 23:45:43 10° NE
Meteor 1-19 Rocket 4.4 23:39:43 10° N 23:45:31 60° ENE 23:45:47 60° E
H-2A R/B 3.0 23:53:53 36° WSW 23:54:41 38° W 23:59:38 10° NNW
